Location: Kawakawa
(35.3830°S, 174.0670°E)
Time: 19:09:10
(UTC+13:00)

Altair - Pass Details

Date: 13 December 2019
Orbit: 1502 x 1682 km, 47.2° (Epoch: 17 January)

Event Time Altitude Azimuth Distance (km) Brightness Sun altitude
Rises 12:03:31 0° 264° (W) 4,815 9.9 69.8°
Reaches altitude 10° 12:06:51 10° 256° (WSW) 3,857 9.5 70.3°
Maximum altitude 12:16:10 43° 187° (S) 2,208 8.8 71.9°
Drops below altitude 10° 12:25:44 10° 117° (ESE) 3,957 9.9 73.3°
Sets 12:29:13 0° 110° (ESE) 4,950 10.3 73.8°
